Location: Unspecified
(52.4292°N, 19.3359°E)
Time: 22:52:25
(UTC+02:00)

SR - Pass Details

Date: 03 June 2024
Orbit: 580 x 858 km, 66.7° (Epoch: 12 June)

Event Time Altitude Azimuth Distance (km) Brightness Sun altitude
Rises 20:39:52 0° 312° (NW) 2,956 ? 1.3°
Reaches altitude 10° 20:43:14 10° 338° (NNW) 1,994 ? 0.9°
Maximum altitude 20:45:39 14° 11° (N) 1,701 ? 0.6°
Drops below altitude 10° 20:48:00 10° 44° (NE) 1,937 ? 0.3°
Sets 20:51:12 0° 70° (ENE) 2,814 ? 0.0°
